Location: Henau
(47.4548°N, 9.1164°E)
Time: 08:34:53
(UTC+00:00)

SL-4 R/B - Visible Passes

Search period start: 21 June 2021 00:00
Search period end: 01 July 2021 00:00
Orbit: 427 x 663 km, 51.6° (Epoch: 20 June)

Date Brightness Start Highest point End Pass type
(mag) Time Alt. Az. Time Alt. Az. Time Alt. Az.
21 Jun 2.8 01:15:55 10° WNW 01:19:32 46° N 01:22:57 10° E visible
21 Jun 3.4 20:10:47 10° S 20:13:42 18° SE 20:16:30 10° E visible
21 Jun 1.8 21:48:45 10° WSW 21:52:54 76° SSE 21:56:43 10° ENE visible
21 Jun 2.9 23:28:50 10° W 23:32:39 46° N 23:36:12 10° ENE visible
22 Jun 2.6 01:08:57 10° WNW 01:12:37 51° NNE 01:16:04 10° E visible
22 Jun 3.1 20:03:12 10° SSW 20:06:37 23° SE 20:09:50 10° E visible
22 Jun 1.8 21:41:44 10° WSW 21:45:54 89° NNW 21:49:46 10° ENE visible
22 Jun 3.0 23:21:56 10° WNW 23:25:44 44° N 23:29:17 10° ENE visible
23 Jun 2.3 01:01:59 10° WNW 01:05:42 58° NNE 01:09:10 10° E visible
23 Jun 2.1 02:41:46 10° WNW 02:45:08 37° SW 02:48:20 10° SSE visible
23 Jun 2.1 21:34:45 10° WSW 21:38:56 77° NNW 21:42:48 10° ENE visible
23 Jun 3.0 23:15:02 10° WNW 23:18:50 43° N 23:22:22 10° ENE visible
24 Jun 2.0 00:55:00 10° WNW 00:58:45 67° NNE 01:02:16 10° ESE visible
24 Jun 2.4 02:34:54 10° W 02:38:04 29° SW 02:41:06 10° SSE visible
24 Jun 2.3 21:27:48 10° WSW 21:31:59 67° NNW 21:35:50 10° ENE visible
24 Jun 3.0 23:08:06 10° WNW 23:11:55 43° N 23:15:28 10° ENE visible
25 Jun 1.7 00:48:00 10° WNW 00:51:48 79° NNE 00:55:20 10° ESE visible
25 Jun 2.8 02:28:06 10° W 02:31:00 23° SW 02:33:46 10° SSE visible
25 Jun 2.6 21:20:52 10° W 21:25:01 59° NNW 21:28:52 10° ENE visible
25 Jun 3.0 23:01:11 10° WNW 23:05:01 44° N 23:08:35 10° ENE visible
26 Jun 1.6 00:41:01 10° WNW 00:44:50 87° SSW 00:48:22 10° ESE visible
26 Jun 3.1 02:21:24 10° W 02:23:53 18° SW 02:26:17 10° S visible
26 Jun 2.8 21:13:57 10° W 21:18:06 53° NNW 21:21:55 10° ENE visible
26 Jun 2.9 22:54:13 10° WNW 22:58:06 47° N 23:01:42 10° E visible
27 Jun 1.5 00:34:02 10° WNW 00:37:50 71° SSW 00:41:23 10° SE visible
27 Jun 3.4 02:14:54 10° W 02:16:43 14° SW 02:16:43 14° SW visible
27 Jun 2.9 21:07:02 10° W 21:11:10 49° N 21:14:58 10° ENE visible
27 Jun 2.7 22:47:16 10° WNW 22:51:11 50° N 22:54:48 10° E visible
28 Jun 1.7 00:27:05 10° WNW 00:30:49 57° SSW 00:31:33 46° SSE visible
28 Jun 3.0 21:00:08 10° W 21:04:14 47° N 21:08:02 10° ENE visible
28 Jun 2.5 22:40:17 10° WNW 22:44:15 56° NNE 22:47:49 11° E visible
29 Jun 2.2 00:20:07 10° WNW 00:23:17 41° WSW 00:23:17 41° WSW visible
29 Jun 3.1 20:53:13 10° WNW 20:57:19 46° N 21:01:07 10° ENE visible
29 Jun 2.2 22:33:18 10° WNW 22:37:19 63° NNE 22:40:01 18° E visible
30 Jun 3.0 00:13:12 10° WNW 00:15:30 27° WSW 00:15:30 27° WSW visible
30 Jun 3.1 20:46:17 10° WNW 20:50:24 45° N 20:54:12 10° ENE visible
30 Jun 2.0 22:26:18 10° WNW 22:30:21 73° NNE 22:32:27 25° ESE visible
